| time (UTC) | temp F | wind direction | speed MPH | gust MPH | rain 1hr in | rain 24hr in | rain mn in | humidity % | barometer mb |
| 20260504151023 | 65 | 212 | 7.0 | 14.0 | 0.00 | 0.00 | 0.00 | 57 | 1003.4 |
| 20260504150947 | 65 | 212 | 7.0 | 14.0 | 0.00 | 0.00 | 0.00 | 57 | 1003.6 |
| 20260504150502 | 65 | 204 | 7.0 | 14.0 | 0.00 | 0.00 | 0.00 | 57 | 1003.6 |
| 20260504150447 | 65 | 204 | 6.0 | 14.0 | 0.00 | 0.00 | 0.00 | 56 | 1003.6 |
| 20260504141023 | 62 | 222 | 6.0 | 13.0 | 0.00 | 0.00 | 0.00 | 62 | 1003.8 |
| 20260504140946 | 62 | 220 | 5.0 | 13.0 | 0.00 | 0.00 | 0.00 | 62 | 1003.7 |
| 20260504140502 | 62 | 220 | 5.0 | 12.0 | 0.00 | 0.00 | 0.00 | 61 | 1003.7 |
| 20260504140446 | 62 | 222 | 5.0 | 12.0 | 0.00 | 0.00 | 0.00 | 61 | 1003.7 |
| 20260504130502 | 58 | 221 | 6.0 | 12.0 | 0.00 | 0.00 | 0.00 | 65 | 1004.4 |
| 20260504130445 | 58 | 220 | 6.0 | 12.0 | 0.00 | 0.00 | 0.00 | 65 | 1004.4 |
| 20260504110503 | 52 | 225 | 5.0 | 9.0 | 0.00 | 0.00 | 0.00 | 73 | 1004.7 |
| 20260504110444 | 51 | 226 | 5.0 | 9.0 | 0.00 | 0.00 | 0.00 | 73 | 1004.8 |
| 20260504100503 | 51 | 231 | 3.0 | 11.0 | 0.00 | 0.00 | 0.00 | 72 | 1004.3 |
| 20260504100443 | 51 | 228 | 4.0 | 11.0 | 0.00 | 0.00 | 0.00 | 72 | 1004.4 |
| 20260504082003 | 51 | 199 | 3.0 | 6.0 | 0.00 | 0.00 | 0.00 | 71 | 1005.0 |
| 20260504081941 | 51 | 198 | 2.0 | 5.0 | 0.00 | 0.00 | 0.00 | 71 | 1005.0 |
| 20260504081503 | 51 | 196 | 2.0 | 5.0 | 0.00 | 0.00 | 0.00 | 70 | 1005.0 |
| 20260504081441 | 51 | 195 | 2.0 | 5.0 | 0.00 | 0.00 | 0.00 | 70 | 1005.1 |
| 20260504081024 | 51 | 197 | 3.0 | 5.0 | 0.00 | 0.00 | 0.00 | 70 | 1005.1 |
| 20260504080941 | 51 | 200 | 3.0 | 5.0 | 0.00 | 0.00 | 0.00 | 70 | 1005.0 |
| 20260504080503 | 51 | 206 | 3.0 | 5.0 | 0.00 | 0.00 | 0.00 | 70 | 1005.1 |
| 20260504080441 | 51 | 208 | 3.0 | 5.0 | 0.00 | 0.00 | 0.00 | 70 | 1005.1 |
| 20260504050503 | 53 | 211 | 4.0 | 12.0 | 0.00 | 0.00 | 0.00 | 69 | 1007.6 |
| 20260504050439 | 53 | 208 | 4.0 | 12.0 | 0.00 | 0.00 | 0.00 | 70 | 1007.6 |
| 20260504050003 | 53 | 207 | 5.0 | 12.0 | 0.00 | 0.00 | 0.00 | 69 | 1007.6 |
| 20260504045939 | 53 | 208 | 5.0 | 12.0 | 0.00 | 0.00 | 0.00 | 69 | 1007.6 |
| 20260504045503 | 53 | 207 | 5.0 | 11.0 | 0.00 | 0.00 | 0.00 | 70 | 1007.6 |
| 20260504045439 | 53 | 209 | 5.0 | 11.0 | 0.00 | 0.00 | 0.00 | 70 | 1007.6 |
| 20260504045003 | 53 | 205 | 5.0 | 11.0 | 0.00 | 0.00 | 0.00 | 69 | 1007.6 |
| 20260504044938 | 53 | 204 | 5.0 | 11.0 | 0.00 | 0.00 | 0.00 | 69 | 1007.7 |
| 20260504044503 | 53 | 198 | 5.0 | 10.0 | 0.00 | 0.00 | 0.00 | 70 | 1007.7 |
| 20260504044438 | 53 | 199 | 5.0 | 10.0 | 0.00 | 0.00 | 0.00 | 70 | 1007.7 |
| 20260504044002 | 53 | 200 | 5.0 | 13.0 | 0.00 | 0.00 | 0.00 | 70 | 1007.8 |
| 20260504043938 | 53 | 199 | 5.0 | 13.0 | 0.00 | 0.00 | 0.00 | 70 | 1007.8 |
| 20260504043503 | 53 | 206 | 5.0 | 13.0 | 0.00 | 0.00 | 0.00 | 70 | 1007.8 |
| 20260504043438 | 53 | 206 | 5.0 | 13.0 | 0.00 | 0.00 | 0.00 | 70 | 1007.8 |
| 20260504043004 | 53 | 205 | 5.0 | 10.0 | 0.00 | 0.00 | 0.00 | 70 | 1007.9 |
| 20260504042938 | 53 | 205 | 6.0 | 15.0 | 0.00 | 0.00 | 0.00 | 70 | 1007.8 |
| 20260504042503 | 53 | 203 | 5.0 | 15.0 | 0.00 | 0.00 | 0.00 | 70 | 1007.8 |
| 20260504042438 | 53 | 201 | 5.0 | 15.0 | 0.00 | 0.00 | 0.00 | 70 | 1007.9 |
| 20260504042003 | 53 | 206 | 6.0 | 15.0 | 0.00 | 0.00 | 0.00 | 70 | 1007.9 |
| 20260504041938 | 53 | 205 | 6.0 | 13.0 | 0.00 | 0.00 | 0.00 | 70 | 1007.8 |
| 20260504041524 | 53 | 202 | 5.0 | 11.0 | 0.00 | 0.00 | 0.00 | 70 | 1008.0 |
| 20260504041438 | 53 | 202 | 5.0 | 11.0 | 0.00 | 0.00 | 0.00 | 70 | 1007.9 |
| 20260504041003 | 53 | 197 | 5.0 | 11.0 | 0.00 | 0.00 | 0.00 | 70 | 1008.0 |
| 20260504040938 | 53 | 197 | 4.0 | 11.0 | 0.00 | 0.00 | 0.00 | 70 | 1008.0 |
| 20260504040503 | 53 | 200 | 5.0 | 12.0 | 0.00 | 0.00 | 0.00 | 69 | 1008.0 |
| 20260504040438 | 53 | 202 | 5.0 | 12.0 | 0.00 | 0.00 | 0.00 | 69 | 1008.1 |
| 20260504040004 | 54 | 206 | 5.0 | 12.0 | 0.00 | 0.00 | 0.00 | 69 | 1008.1 |
| 20260504035938 | 54 | 204 | 6.0 | 16.0 | 0.00 | 0.00 | 0.00 | 69 | 1008.1 |
| 20260504035524 | 54 | 199 | 5.0 | 16.0 | 0.00 | 0.00 | 0.00 | 68 | 1008.2 |
| 20260504035437 | 54 | 199 | 5.0 | 16.0 | 0.00 | 0.00 | 0.00 | 68 | 1008.2 |
| 20260504035003 | 54 | 190 | 4.0 | 16.0 | 0.00 | 0.00 | 0.00 | 67 | 1008.1 |
| 20260504034937 | 54 | 191 | 4.0 | 15.0 | 0.00 | 0.00 | 0.00 | 67 | 1008.2 |
| 20260504034504 | 54 | 195 | 4.0 | 11.0 | 0.00 | 0.00 | 0.00 | 66 | 1008.2 |
| 20260504034437 | 54 | 191 | 4.0 | 11.0 | 0.00 | 0.00 | 0.00 | 65 | 1008.3 |
| 20260504034024 | 54 | 192 | 5.0 | 11.0 | 0.00 | 0.00 | 0.00 | 65 | 1008.4 |
| 20260504033937 | 54 | 195 | 5.0 | 11.0 | 0.00 | 0.00 | 0.00 | 64 | 1008.5 |
| 20260504033524 | 54 | 200 | 5.0 | 10.0 | 0.00 | 0.00 | 0.00 | 63 | 1008.4 |
| 20260504033437 | 54 | 202 | 5.0 | 10.0 | 0.00 | 0.00 | 0.00 | 63 | 1008.4 |
| 20260504033004 | 54 | 206 | 5.0 | 16.0 | 0.00 | 0.00 | 0.00 | 63 | 1008.5 |
| 20260504032937 | 54 | 205 | 5.0 | 16.0 | 0.00 | 0.00 | 0.00 | 63 | 1008.5 |
| 20260504032503 | 54 | 203 | 5.0 | 16.0 | 0.00 | 0.00 | 0.00 | 63 | 1008.4 |
| 20260504032437 | 54 | 203 | 5.0 | 16.0 | 0.00 | 0.00 | 0.00 | 63 | 1008.5 |
| 20260504032003 | 54 | 194 | 4.0 | 11.0 | 0.00 | 0.00 | 0.00 | 63 | 1008.5 |
| 20260504031937 | 54 | 194 | 5.0 | 11.0 | 0.00 | 0.00 | 0.00 | 63 | 1008.5 |
| 20260504031503 | 54 | 192 | 5.0 | 12.0 | 0.00 | 0.00 | 0.00 | 63 | 1008.4 |
| 20260504031437 | 54 | 193 | 5.0 | 12.0 | 0.00 | 0.00 | 0.00 | 63 | 1008.4 |
| 20260504031003 | 54 | 202 | 5.0 | 12.0 | 0.00 | 0.00 | 0.00 | 62 | 1008.5 |
| 20260504030937 | 54 | 202 | 5.0 | 12.0 | 0.00 | 0.00 | 0.00 | 62 | 1008.5 |
| 20260504030503 | 55 | 207 | 5.0 | 10.0 | 0.00 | 0.00 | 0.00 | 62 | 1008.5 |
| 20260504030437 | 55 | 207 | 5.0 | 10.0 | 0.00 | 0.00 | 0.00 | 62 | 1008.5 |
| 20260504030003 | 55 | 212 | 6.0 | 12.0 | 0.00 | 0.00 | 0.00 | 62 | 1008.5 |
| 20260504025937 | 55 | 213 | 5.0 | 12.0 | 0.00 | 0.00 | 0.00 | 62 | 1008.5 |
| 20260504025503 | 55 | 213 | 5.0 | 13.0 | 0.00 | 0.00 | 0.00 | 62 | 1008.6 |
| 20260504025437 | 55 | 213 | 5.0 | 13.0 | 0.00 | 0.00 | 0.00 | 62 | 1008.6 |
| 20260504025004 | 55 | 209 | 5.0 | 13.0 | 0.00 | 0.00 | 0.00 | 62 | 1008.7 |
| 20260504024936 | 55 | 211 | 5.0 | 13.0 | 0.00 | 0.00 | 0.00 | 62 | 1008.7 |
| 20260504024503 | 55 | 213 | 4.0 | 9.0 | 0.00 | 0.00 | 0.00 | 62 | 1008.6 |
| 20260504024436 | 55 | 215 | 4.0 | 11.0 | 0.00 | 0.00 | 0.00 | 62 | 1008.6 |
| 20260504024003 | 54 | 211 | 4.0 | 11.0 | 0.00 | 0.00 | 0.00 | 62 | 1008.7 |
| 20260504023936 | 54 | 209 | 4.0 | 11.0 | 0.00 | 0.00 | 0.00 | 62 | 1008.8 |
| 20260504023504 | 54 | 204 | 3.0 | 11.0 | 0.00 | 0.00 | 0.00 | 62 | 1008.7 |
| 20260504023436 | 54 | 202 | 3.0 | 7.0 | 0.00 | 0.00 | 0.00 | 62 | 1008.7 |
| 20260504023024 | 55 | 214 | 3.0 | 7.0 | 0.00 | 0.00 | 0.00 | 62 | 1008.7 |
| 20260504022936 | 55 | 217 | 3.0 | 8.0 | 0.00 | 0.00 | 0.00 | 62 | 1008.7 |
| 20260504022504 | 55 | 219 | 4.0 | 8.0 | 0.00 | 0.00 | 0.00 | 62 | 1008.7 |
| 20260504022436 | 55 | 219 | 3.0 | 8.0 | 0.00 | 0.00 | 0.00 | 62 | 1008.7 |
| 20260504022003 | 55 | 213 | 4.0 | 8.0 | 0.00 | 0.00 | 0.00 | 61 | 1008.6 |
| 20260504021936 | 55 | 209 | 4.0 | 8.0 | 0.00 | 0.00 | 0.00 | 61 | 1008.6 |
| 20260504021503 | 55 | 206 | 4.0 | 11.0 | 0.00 | 0.00 | 0.00 | 61 | 1008.7 |
| 20260504021436 | 55 | 207 | 4.0 | 11.0 | 0.00 | 0.00 | 0.00 | 61 | 1008.7 |
| 20260504021004 | 55 | 213 | 4.0 | 11.0 | 0.00 | 0.00 | 0.00 | 61 | 1008.7 |
| 20260504020936 | 55 | 213 | 4.0 | 11.0 | 0.00 | 0.00 | 0.00 | 61 | 1008.7 |
| 20260504020503 | 55 | 227 | 4.0 | 11.0 | 0.00 | 0.00 | 0.00 | 61 | 1008.7 |
| 20260504020436 | 55 | 223 | 4.0 | 11.0 | 0.00 | 0.00 | 0.00 | 61 | 1008.8 |
| 20260504020003 | 56 | 219 | 5.0 | 11.0 | 0.00 | 0.00 | 0.00 | 60 | 1008.7 |
| 20260504015936 | 56 | 222 | 5.0 | 11.0 | 0.00 | 0.00 | 0.00 | 60 | 1008.8 |
| 20260504015504 | 56 | 212 | 5.0 | 11.0 | 0.00 | 0.00 | 0.00 | 60 | 1008.8 |
| 20260504015436 | 56 | 212 | 5.0 | 11.0 | 0.00 | 0.00 | 0.00 | 60 | 1008.8 |
| 20260504015003 | 56 | 216 | 5.0 | 17.0 | 0.00 | 0.00 | 0.00 | 59 | 1008.7 |
| 20260504014935 | 56 | 216 | 5.0 | 17.0 | 0.00 | 0.00 | 0.00 | 59 | 1008.7 |
| 20260504014503 | 56 | 218 | 5.0 | 17.0 | 0.00 | 0.00 | 0.00 | 59 | 1008.8 |
| 20260504014435 | 56 | 218 | 5.0 | 17.0 | 0.00 | 0.00 | 0.00 | 59 | 1008.8 |
| 20260504014003 | 56 | 216 | 5.0 | 12.0 | 0.00 | 0.00 | 0.00 | 59 | 1008.8 |
| 20260504013935 | 56 | 216 | 5.0 | 12.0 | 0.00 | 0.00 | 0.00 | 59 | 1008.8 |
| 20260504013504 | 56 | 220 | 5.0 | 12.0 | 0.00 | 0.00 | 0.00 | 58 | 1008.8 |
| 20260504013435 | 56 | 221 | 5.0 | 12.0 | 0.00 | 0.00 | 0.00 | 58 | 1008.8 |
| 20260504013025 | 57 | 221 | 4.0 | 10.0 | 0.00 | 0.00 | 0.00 | 58 | 1008.8 |
| 20260504012935 | 57 | 220 | 4.0 | 10.0 | 0.00 | 0.00 | 0.00 | 57 | 1008.8 |
| 20260504012503 | 57 | 217 | 5.0 | 13.0 | 0.00 | 0.00 | 0.00 | 57 | 1008.9 |
| 20260504012435 | 57 | 216 | 6.0 | 17.0 | 0.00 | 0.00 | 0.00 | 57 | 1008.9 |
| 20260504012003 | 57 | 214 | 7.0 | 17.0 | 0.00 | 0.00 | 0.00 | 56 | 1008.8 |
| 20260504011935 | 57 | 213 | 8.0 | 17.0 | 0.00 | 0.00 | 0.00 | 56 | 1008.8 |
| 20260504011503 | 57 | 212 | 7.0 | 17.0 | 0.00 | 0.00 | 0.00 | 55 | 1008.8 |
| 20260504011435 | 57 | 213 | 6.0 | 16.0 | 0.00 | 0.00 | 0.00 | 56 | 1008.9 |
| 20260504011003 | 58 | 216 | 6.0 | 16.0 | 0.00 | 0.00 | 0.00 | 55 | 1008.9 |
| 20260504010935 | 58 | 219 | 6.0 | 14.0 | 0.00 | 0.00 | 0.00 | 56 | 1008.8 |
| 20260504010503 | 58 | 219 | 7.0 | 19.0 | 0.00 | 0.00 | 0.00 | 56 | 1008.9 |
| 20260504010435 | 58 | 219 | 7.0 | 19.0 | 0.00 | 0.00 | 0.00 | 56 | 1008.8 |
| 20260504010003 | 58 | 220 | 8.0 | 19.0 | 0.00 | 0.00 | 0.00 | 55 | 1008.7 |
| 20260504005935 | 58 | 220 | 8.0 | 19.0 | 0.00 | 0.00 | 0.00 | 55 | 1008.8 |
| 20260504005524 | 59 | 223 | 7.0 | 20.0 | 0.00 | 0.00 | 0.00 | 56 | 1008.7 |
| 20260504005435 | 59 | 225 | 8.0 | 20.0 | 0.00 | 0.00 | 0.00 | 55 | 1008.6 |
| 20260504005004 | 59 | 226 | 8.0 | 20.0 | 0.00 | 0.00 | 0.00 | 55 | 1008.5 |
| 20260504004935 | 59 | 225 | 8.0 | 20.0 | 0.00 | 0.00 | 0.00 | 54 | 1008.4 |
| 20260504004503 | 60 | 230 | 9.0 | 24.0 | 0.00 | 0.00 | 0.00 | 54 | 1008.4 |
| 20260504004434 | 60 | 229 | 8.0 | 24.0 | 0.00 | 0.00 | 0.00 | 54 | 1008.7 |
| 20260504004003 | 60 | 232 | 7.0 | 24.0 | 0.00 | 0.00 | 0.00 | 53 | 1008.3 |
| 20260504003934 | 60 | 233 | 6.0 | 24.0 | 0.00 | 0.00 | 0.00 | 52 | 1008.3 |
| 20260504003501 | 60 | 233 | 5.0 | 14.0 | 0.00 | 0.00 | 0.00 | 51 | 1008.1 |
| 20260504003404 | 60 | 238 | 5.0 | 14.0 | 0.00 | 0.00 | 0.00 | 50 | 1008.2 |
| 20260504003001 | 61 | 234 | 6.0 | 14.0 | 0.00 | 0.00 | 0.00 | 50 | 1008.1 |
| 20260504002904 | 60 | 233 | 6.0 | 14.0 | 0.00 | 0.00 | 0.00 | 50 | 1008.1 |
| 20260504002501 | 61 | 230 | 7.0 | 14.0 | 0.00 | 0.00 | 0.00 | 50 | 1008.1 |
| 20260504002404 | 61 | 228 | 6.0 | 14.0 | 0.00 | 0.00 | 0.00 | 49 | 1008.1 |
| 20260504002001 | 61 | 230 | 6.0 | 14.0 | 0.00 | 0.00 | 0.00 | 49 | 1008.0 |
| 20260504001904 | 61 | 229 | 6.0 | 14.0 | 0.00 | 0.00 | 0.00 | 49 | 1008.0 |
| 20260504001522 | 61 | 227 | 6.0 | 14.0 | 0.00 | 0.00 | 0.00 | 49 | 1007.9 |
| 20260504001404 | 61 | 225 | 6.0 | 15.0 | 0.00 | 0.00 | 0.00 | 48 | 1007.9 |
| 20260504001001 | 61 | 220 | 6.0 | 15.0 | 0.00 | 0.00 | 0.00 | 48 | 1007.9 |
| 20260504000904 | 61 | 221 | 6.0 | 15.0 | 0.00 | 0.00 | 0.00 | 48 | 1007.9 |
| 20260504000522 | 61 | 218 | 6.0 | 15.0 | 0.00 | 0.00 | 0.00 | 48 | 1007.9 |
| 20260504000404 | 61 | 218 | 6.0 | 15.0 | 0.00 | 0.00 | 0.00 | 48 | 1007.9 |
| 20260504000001 | 61 | 222 | 6.0 | 17.0 | 0.00 | 0.00 | 0.00 | 47 | 1007.9 |
| 20260503235904 | 61 | 223 | 6.0 | 17.0 | 0.00 | 0.00 | 0.00 | 47 | 1007.9 |
| 20260503235502 | 61 | 229 | 6.0 | 18.0 | 0.00 | 0.00 | 0.00 | 48 | 1007.9 |
| 20260503235404 | 61 | 227 | 6.0 | 18.0 | 0.00 | 0.00 | 0.00 | 48 | 1007.8 |
| 20260503235022 | 61 | 225 | 6.0 | 18.0 | 0.00 | 0.00 | 0.00 | 48 | 1007.8 |
| 20260503234904 | 61 | 224 | 6.0 | 18.0 | 0.00 | 0.00 | 0.00 | 47 | 1007.8 |
| 20260503234501 | 61 | 224 | 6.0 | 20.0 | 0.00 | 0.00 | 0.00 | 47 | 1007.8 |
| 20260503234404 | 61 | 227 | 6.0 | 20.0 | 0.00 | 0.00 | 0.00 | 48 | 1007.9 |
| 20260503234001 | 61 | 224 | 7.0 | 20.0 | 0.00 | 0.00 | 0.00 | 47 | 1007.8 |
| 20260503233904 | 62 | 223 | 6.0 | 20.0 | 0.00 | 0.00 | 0.00 | 48 | 1007.9 |
| 20260503233501 | 62 | 218 | 7.0 | 14.0 | 0.00 | 0.00 | 0.00 | 46 | 1007.9 |
| 20260503233404 | 62 | 220 | 6.0 | 14.0 | 0.00 | 0.00 | 0.00 | 46 | 1007.8 |
| 20260503233023 | 62 | 226 | 6.0 | 14.0 | 0.00 | 0.00 | 0.00 | 46 | 1007.8 |
| 20260503232903 | 62 | 231 | 7.0 | 17.0 | 0.00 | 0.00 | 0.00 | 46 | 1007.9 |
| 20260503232502 | 62 | 228 | 7.0 | 17.0 | 0.00 | 0.00 | 0.00 | 46 | 1007.8 |
| 20260503232403 | 62 | 226 | 7.0 | 17.0 | 0.00 | 0.00 | 0.00 | 46 | 1007.9 |
| 20260503232022 | 62 | 221 | 8.0 | 18.0 | 0.00 | 0.00 | 0.00 | 45 | 1007.9 |
| 20260503231903 | 63 | 222 | 8.0 | 18.0 | 0.00 | 0.00 | 0.00 | 45 | 1007.8 |
| 20260503231501 | 63 | 231 | 8.0 | 18.0 | 0.00 | 0.00 | 0.00 | 44 | 1007.9 |
| 20260503231403 | 63 | 234 | 8.0 | 19.0 | 0.00 | 0.00 | 0.00 | 44 | 1008.0 |
| 20260503231002 | 63 | 232 | 7.0 | 19.0 | 0.00 | 0.00 | 0.00 | 45 | 1007.9 |
| 20260503230903 | 63 | 228 | 8.0 | 19.0 | 0.00 | 0.00 | 0.00 | 44 | 1007.9 |
| 20260503230501 | 63 | 220 | 8.0 | 19.0 | 0.00 | 0.00 | 0.00 | 44 | 1007.9 |
| 20260503230403 | 63 | 215 | 8.0 | 18.0 | 0.00 | 0.00 | 0.00 | 44 | 1007.9 |
| 20260503230001 | 63 | 213 | 8.0 | 18.0 | 0.00 | 0.00 | 0.00 | 43 | 1007.9 |
| 20260503225903 | 63 | 212 | 8.0 | 18.0 | 0.00 | 0.00 | 0.00 | 44 | 1007.9 |
| 20260503225502 | 63 | 214 | 8.0 | 18.0 | 0.00 | 0.00 | 0.00 | 44 | 1008.0 |
| 20260503225403 | 63 | 218 | 7.0 | 18.0 | 0.00 | 0.00 | 0.00 | 44 | 1008.0 |
| 20260503225001 | 63 | 225 | 7.0 | 15.0 | 0.00 | 0.00 | 0.00 | 43 | 1008.2 |
| 20260503224903 | 63 | 227 | 7.0 | 15.0 | 0.00 | 0.00 | 0.00 | 44 | 1008.2 |
| 20260503224501 | 63 | 227 | 7.0 | 15.0 | 0.00 | 0.00 | 0.00 | 45 | 1008.2 |
| 20260503224403 | 63 | 224 | 7.0 | 13.0 | 0.00 | 0.00 | 0.00 | 44 | 1008.2 |
| 20260503224022 | 63 | 220 | 7.0 | 19.0 | 0.00 | 0.00 | 0.00 | 44 | 1008.3 |
| 20260503223903 | 63 | 221 | 7.0 | 19.0 | 0.00 | 0.00 | 0.00 | 44 | 1008.3 |
| 20260503223523 | 63 | 223 | 7.0 | 19.0 | 0.00 | 0.00 | 0.00 | 43 | 1008.3 |
| 20260503223403 | 63 | 224 | 7.0 | 19.0 | 0.00 | 0.00 | 0.00 | 43 | 1008.3 |
| 20260503223001 | 63 | 219 | 6.0 | 19.0 | 0.00 | 0.00 | 0.00 | 44 | 1008.3 |
| 20260503222903 | 63 | 218 | 6.0 | 19.0 | 0.00 | 0.00 | 0.00 | 44 | 1008.3 |
| 20260503222501 | 63 | 217 | 6.0 | 15.0 | 0.00 | 0.00 | 0.00 | 44 | 1008.4 |
| 20260503222403 | 63 | 217 | 7.0 | 15.0 | 0.00 | 0.00 | 0.00 | 43 | 1008.3 |
| 20260503222002 | 63 | 233 | 7.0 | 16.0 | 0.00 | 0.00 | 0.00 | 44 | 1008.4 |
| 20260503221903 | 63 | 237 | 9.0 | 17.0 | 0.00 | 0.00 | 0.00 | 43 | 1008.4 |
| 20260503221501 | 64 | 243 | 9.0 | 21.0 | 0.00 | 0.00 | 0.00 | 43 | 1008.5 |
| 20260503221403 | 64 | 242 | 9.0 | 21.0 | 0.00 | 0.00 | 0.00 | 43 | 1008.4 |
| 20260503221001 | 63 | 233 | 9.0 | 21.0 | 0.00 | 0.00 | 0.00 | 43 | 1008.5 |
| 20260503220903 | 63 | 229 | 8.0 | 21.0 | 0.00 | 0.00 | 0.00 | 44 | 1008.4 |
| 20260503220523 | 63 | 227 | 9.0 | 19.0 | 0.00 | 0.00 | 0.00 | 42 | 1008.4 |
| 20260503220402 | 63 | 228 | 9.0 | 19.0 | 0.00 | 0.00 | 0.00 | 42 | 1008.4 |
| 20260503220001 | 63 | 231 | 7.0 | 19.0 | 0.00 | 0.00 | 0.00 | 43 | 1008.5 |
| 20260503215902 | 63 | 234 | 7.0 | 19.0 | 0.00 | 0.00 | 0.00 | 44 | 1008.4 |
| 20260503215501 | 63 | 227 | 6.0 | 14.0 | 0.00 | 0.00 | 0.00 | 44 | 1008.5 |
| 20260503215402 | 63 | 225 | 7.0 | 13.0 | 0.00 | 0.00 | 0.00 | 45 | 1008.5 |
| 20260503215002 | 63 | 217 | 8.0 | 21.0 | 0.00 | 0.00 | 0.00 | 44 | 1008.3 |
| 20260503214902 | 63 | 215 | 9.0 | 21.0 | 0.00 | 0.00 | 0.00 | 44 | 1008.3 |
| 20260503214502 | 63 | 215 | 9.0 | 21.0 | 0.00 | 0.00 | 0.00 | 43 | 1008.4 |
| 20260503214402 | 63 | 216 | 9.0 | 21.0 | 0.00 | 0.00 | 0.00 | 43 | 1008.4 |
| 20260503214001 | 63 | 220 | 8.0 | 20.0 | 0.00 | 0.00 | 0.00 | 43 | 1008.3 |
| 20260503213902 | 63 | 221 | 8.0 | 20.0 | 0.00 | 0.00 | 0.00 | 44 | 1008.3 |
| 20260503213502 | 63 | 216 | 8.0 | 18.0 | 0.00 | 0.00 | 0.00 | 44 | 1008.4 |
| 20260503213402 | 63 | 216 | 8.0 | 19.0 | 0.00 | 0.00 | 0.00 | 44 | 1008.4 |
| 20260503213001 | 63 | 213 | 9.0 | 23.0 | 0.00 | 0.00 | 0.00 | 43 | 1008.3 |
| 20260503212902 | 63 | 213 | 9.0 | 23.0 | 0.00 | 0.00 | 0.00 | 43 | 1008.3 |
| 20260503212501 | 64 | 216 | 9.0 | 23.0 | 0.00 | 0.00 | 0.00 | 42 | 1008.5 |
| 20260503212402 | 64 | 220 | 8.0 | 23.0 | 0.00 | 0.00 | 0.00 | 42 | 1008.5 |
| 20260503212002 | 64 | 231 | 7.0 | 17.0 | 0.00 | 0.00 | 0.00 | 42 | 1008.4 |
| 20260503211902 | 64 | 230 | 6.0 | 17.0 | 0.00 | 0.00 | 0.00 | 43 | 1008.4 |
| 20260503211501 | 64 | 230 | 6.0 | 17.0 | 0.00 | 0.00 | 0.00 | 42 | 1008.4 |
| 20260503211402 | 64 | 224 | 6.0 | 20.0 | 0.00 | 0.00 | 0.00 | 42 | 1008.4 |
| 20260503211001 | 64 | 222 | 6.0 | 20.0 | 0.00 | 0.00 | 0.00 | 42 | 1008.4 |
| 20260503210902 | 64 | 227 | 7.0 | 20.0 | 0.00 | 0.00 | 0.00 | 42 | 1008.4 |
| 20260503210502 | 64 | 238 | 7.0 | 21.0 | 0.00 | 0.00 | 0.00 | 41 | 1008.4 |
| 20260503210402 | 64 | 244 | 7.0 | 21.0 | 0.00 | 0.00 | 0.00 | 42 | 1008.6 |
| 20260503210001 | 64 | 248 | 8.0 | 21.0 | 0.00 | 0.00 | 0.00 | 42 | 1008.4 |
| 20260503205901 | 64 | 247 | 7.0 | 21.0 | 0.00 | 0.00 | 0.00 | 42 | 1008.4 |
| 20260503205502 | 64 | 241 | 7.0 | 17.0 | 0.00 | 0.00 | 0.00 | 42 | 1008.4 |
| 20260503205401 | 64 | 239 | 7.0 | 17.0 | 0.00 | 0.00 | 0.00 | 41 | 1008.4 |
| 20260503205023 | 64 | 234 | 7.0 | 15.0 | 0.00 | 0.00 | 0.00 | 42 | 1008.5 |
| 20260503204901 | 64 | 226 | 7.0 | 18.0 | 0.00 | 0.00 | 0.00 | 41 | 1008.4 |
| 20260503204502 | 64 | 218 | 8.0 | 18.0 | 0.00 | 0.00 | 0.00 | 41 | 1008.4 |
| 20260503204401 | 64 | 217 | 8.0 | 18.0 | 0.00 | 0.00 | 0.00 | 42 | 1008.4 |
| 20260503204001 | 64 | 218 | 7.0 | 18.0 | 0.00 | 0.00 | 0.00 | 41 | 1008.5 |
| 20260503203901 | 64 | 219 | 8.0 | 18.0 | 0.00 | 0.00 | 0.00 | 41 | 1008.6 |
| 20260503203501 | 64 | 219 | 8.0 | 18.0 | 0.00 | 0.00 | 0.00 | 41 | 1008.5 |
| 20260503203401 | 64 | 219 | 8.0 | 18.0 | 0.00 | 0.00 | 0.00 | 41 | 1008.6 |
| 20260503203001 | 64 | 213 | 8.0 | 18.0 | 0.00 | 0.00 | 0.00 | 40 | 1008.5 |
| 20260503202901 | 64 | 214 | 8.0 | 17.0 | 0.00 | 0.00 | 0.00 | 40 | 1008.6 |
| 20260503202501 | 64 | 214 | 7.0 | 17.0 | 0.00 | 0.00 | 0.00 | 39 | 1008.6 |
| 20260503202401 | 64 | 217 | 7.0 | 18.0 | 0.00 | 0.00 | 0.00 | 40 | 1008.6 |
| 20260503202023 | 65 | 218 | 8.0 | 18.0 | 0.00 | 0.00 | 0.00 | 39 | 1008.5 |
| 20260503201901 | 65 | 217 | 8.0 | 18.0 | 0.00 | 0.00 | 0.00 | 40 | 1008.5 |
| 20260503201502 | 65 | 218 | 8.0 | 18.0 | 0.00 | 0.00 | 0.00 | 39 | 1008.5 |
| 20260503201401 | 65 | 215 | 7.0 | 17.0 | 0.00 | 0.00 | 0.00 | 39 | 1008.5 |
| 20260503201023 | 65 | 215 | 7.0 | 14.0 | 0.00 | 0.00 | 0.00 | 40 | 1008.5 |
| 20260503200901 | 65 | 216 | 7.0 | 15.0 | 0.00 | 0.00 | 0.00 | 40 | 1008.5 |
| 20260503200502 | 65 | 219 | 7.0 | 15.0 | 0.00 | 0.00 | 0.00 | 41 | 1008.6 |
| 20260503200401 | 64 | 218 | 8.0 | 15.0 | 0.00 | 0.00 | 0.00 | 40 | 1008.6 |
| 20260503200002 | 64 | 219 | 8.0 | 17.0 | 0.00 | 0.00 | 0.00 | 39 | 1008.6 |
| 20260503195901 | 64 | 218 | 7.0 | 17.0 | 0.00 | 0.00 | 0.00 | 38 | 1008.6 |
| 20260503195524 | 65 | 224 | 7.0 | 17.0 | 0.00 | 0.00 | 0.00 | 38 | 1008.7 |
| 20260503195401 | 65 | 226 | 8.0 | 17.0 | 0.00 | 0.00 | 0.00 | 38 | 1008.7 |
| 20260503195001 | 65 | 227 | 8.0 | 16.0 | 0.00 | 0.00 | 0.00 | 39 | 1008.9 |
| 20260503194901 | 65 | 228 | 7.0 | 16.0 | 0.00 | 0.00 | 0.00 | 38 | 1009.0 |
| 20260503194502 | 65 | 222 | 7.0 | 16.0 | 0.00 | 0.00 | 0.00 | 36 | 1009.0 |
| 20260503194400 | 65 | 221 | 7.0 | 14.0 | 0.00 | 0.00 | 0.00 | 38 | 1008.9 |
| 20260503194001 | 66 | 220 | 7.0 | 22.0 | 0.00 | 0.00 | 0.00 | 39 | 1009.0 |
| 20260503193900 | 65 | 219 | 8.0 | 22.0 | 0.00 | 0.00 | 0.00 | 37 | 1009.0 |
| 20260503193522 | 66 | 218 | 8.0 | 22.0 | 0.00 | 0.00 | 0.00 | 37 | 1009.2 |
| 20260503193400 | 66 | 219 | 7.0 | 22.0 | 0.00 | 0.00 | 0.00 | 37 | 1009.3 |
| 20260503193002 | 66 | 232 | 7.0 | 21.0 | 0.00 | 0.00 | 0.00 | 38 | 1009.0 |
| 20260503192900 | 66 | 240 | 7.0 | 16.0 | 0.00 | 0.00 | 0.00 | 39 | 1009.0 |
| 20260503192502 | 65 | 247 | 8.0 | 17.0 | 0.00 | 0.00 | 0.00 | 41 | 1009.1 |
| 20260503192400 | 65 | 244 | 9.0 | 17.0 | 0.00 | 0.00 | 0.00 | 40 | 1009.1 |
| 20260503192001 | 64 | 245 | 10.0 | 21.0 | 0.00 | 0.00 | 0.00 | 40 | 1009.3 |
| 20260503191900 | 64 | 242 | 11.0 | 21.0 | 0.00 | 0.00 | 0.00 | 40 | 1009.3 |
| 20260503191501 | 64 | 239 | 11.0 | 25.0 | 0.00 | 0.00 | 0.00 | 39 | 1009.4 |
| 20260503191400 | 64 | 242 | 11.0 | 25.0 | 0.00 | 0.00 | 0.00 | 40 | 1009.4 |
| 20260503191002 | 64 | 234 | 10.0 | 25.0 | 0.00 | 0.00 | 0.00 | 38 | 1009.5 |
| 20260503190900 | 65 | 233 | 10.0 | 25.0 | 0.00 | 0.00 | 0.00 | 37 | 1009.6 |
| 20260503190502 | 65 | 230 | 10.0 | 21.0 | 0.00 | 0.00 | 0.00 | 38 | 1009.5 |
| 20260503190400 | 65 | 227 | 10.0 | 21.0 | 0.00 | 0.00 | 0.00 | 38 | 1009.5 |
| 20260503190001 | 66 | 223 | 8.0 | 15.0 | 0.00 | 0.00 | 0.00 | 37 | 1009.8 |
| 20260503185900 | 66 | 226 | 8.0 | 17.0 | 0.00 | 0.00 | 0.00 | 37 | 1009.8 |
| 20260503185503 | 66 | 223 | 8.0 | 22.0 | 0.00 | 0.00 | 0.00 | 37 | 1010.0 |
| 20260503185400 | 67 | 224 | 8.0 | 22.0 | 0.00 | 0.00 | 0.00 | 38 | 1010.0 |
| 20260503185002 | 67 | 225 | 8.0 | 22.0 | 0.00 | 0.00 | 0.00 | 38 | 1010.0 |
| 20260503184900 | 67 | 227 | 9.0 | 22.0 | 0.00 | 0.00 | 0.00 | 37 | 1010.0 |
| 20260503184502 | 66 | 231 | 9.0 | 19.0 | 0.00 | 0.00 | 0.00 | 37 | 1010.0 |
| 20260503184400 | 66 | 233 | 9.0 | 19.0 | 0.00 | 0.00 | 0.00 | 37 | 1010.0 |
| 20260503184002 | 66 | 240 | 9.0 | 24.0 | 0.00 | 0.00 | 0.00 | 39 | 1010.0 |
| 20260503183900 | 65 | 236 | 8.0 | 24.0 | 0.00 | 0.00 | 0.00 | 40 | 1010.0 |
| 20260503183502 | 65 | 231 | 9.0 | 24.0 | 0.00 | 0.00 | 0.00 | 39 | 1010.0 |
| 20260503183400 | 65 | 231 | 8.0 | 24.0 | 0.00 | 0.00 | 0.00 | 38 | 1010.1 |
| 20260503183002 | 64 | 222 | 8.0 | 18.0 | 0.00 | 0.00 | 0.00 | 39 | 1010.2 |
| 20260503182900 | 64 | 222 | 8.0 | 17.0 | 0.00 | 0.00 | 0.00 | 39 | 1010.2 |
| 20260503182501 | 64 | 227 | 8.0 | 18.0 | 0.00 | 0.00 | 0.00 | 39 | 1010.3 |
| 20260503182400 | 64 | 228 | 8.0 | 18.0 | 0.00 | 0.00 | 0.00 | 39 | 1010.2 |
| 20260503182002 | 64 | 232 | 8.0 | 23.0 | 0.00 | 0.00 | 0.00 | 38 | 1010.4 |
| 20260503181900 | 64 | 231 | 8.0 | 23.0 | 0.00 | 0.00 | 0.00 | 38 | 1010.5 |
| 20260503181503 | 64 | 230 | 9.0 | 23.0 | 0.00 | 0.00 | 0.00 | 38 | 1010.5 |
| 20260503181359 | 64 | 228 | 9.0 | 23.0 | 0.00 | 0.00 | 0.00 | 38 | 1010.4 |
| 20260503181002 | 65 | 226 | 9.0 | 22.0 | 0.00 | 0.00 | 0.00 | 37 | 1010.5 |
| 20260503180859 | 65 | 224 | 10.0 | 22.0 | 0.00 | 0.00 | 0.00 | 38 | 1010.4 |
| 20260503180522 | 65 | 223 | 9.0 | 22.0 | 0.00 | 0.00 | 0.00 | 37 | 1010.4 |
| 20260503180359 | 65 | 222 | 9.0 | 22.0 | 0.00 | 0.00 | 0.00 | 37 | 1010.4 |
| 20260503180001 | 65 | 228 | 9.0 | 22.0 | 0.00 | 0.00 | 0.00 | 37 | 1010.4 |
| 20260503175859 | 65 | 231 | 8.0 | 21.0 | 0.00 | 0.00 | 0.00 | 38 | 1010.5 |
| 20260503175523 | 64 | 227 | 8.0 | 21.0 | 0.00 | 0.00 | 0.00 | 38 | 1010.5 |
| 20260503175359 | 64 | 224 | 8.0 | 21.0 | 0.00 | 0.00 | 0.00 | 37 | 1010.6 |
| 20260503175002 | 64 | 211 | 8.0 | 18.0 | 0.00 | 0.00 | 0.00 | 38 | 1010.8 |
| 20260503174859 | 64 | 209 | 7.0 | 18.0 | 0.00 | 0.00 | 0.00 | 38 | 1010.6 |
| 20260503174522 | 64 | 216 | 7.0 | 17.0 | 0.00 | 0.00 | 0.00 | 37 | 1010.7 |
| 20260503174359 | 64 | 221 | 6.0 | 17.0 | 0.00 | 0.00 | 0.00 | 38 | 1010.8 |
| 20260503174023 | 65 | 232 | 6.0 | 14.0 | 0.00 | 0.00 | 0.00 | 37 | 1010.8 |
| 20260503173859 | 65 | 238 | 7.0 | 14.0 | 0.00 | 0.00 | 0.00 | 38 | 1010.8 |
| 20260503173502 | 65 | 238 | 8.0 | 17.0 | 0.00 | 0.00 | 0.00 | 38 | 1010.8 |
| 20260503173359 | 65 | 242 | 9.0 | 18.0 | 0.00 | 0.00 | 0.00 | 39 | 1010.8 |
| 20260503173002 | 64 | 248 | 9.0 | 18.0 | 0.00 | 0.00 | 0.00 | 39 | 1011.0 |
| 20260503172859 | 64 | 248 | 10.0 | 18.0 | 0.00 | 0.00 | 0.00 | 39 | 1011.0 |
| 20260503172502 | 64 | 252 | 10.0 | 23.0 | 0.00 | 0.00 | 0.00 | 39 | 1011.0 |
| 20260503172359 | 64 | 255 | 10.0 | 23.0 | 0.00 | 0.00 | 0.00 | 38 | 1011.0 |
| 20260503172023 | 63 | 247 | 9.0 | 23.0 | 0.00 | 0.00 | 0.00 | 39 | 1011.1 |
| 20260503171859 | 63 | 248 | 8.0 | 23.0 | 0.00 | 0.00 | 0.00 | 39 | 1011.1 |
| 20260503171501 | 63 | 243 | 8.0 | 22.0 | 0.00 | 0.00 | 0.00 | 39 | 1011.1 |
| 20260503171359 | 63 | 242 | 9.0 | 19.0 | 0.00 | 0.00 | 0.00 | 40 | 1011.2 |
| 20260503171023 | 63 | 250 | 10.0 | 20.0 | 0.00 | 0.00 | 0.00 | 39 | 1011.1 |
| 20260503170859 | 63 | 247 | 10.0 | 20.0 | 0.00 | 0.00 | 0.00 | 38 | 1011.2 |
| 20260503170502 | 63 | 243 | 10.0 | 20.0 | 0.00 | 0.00 | 0.00 | 39 | 1011.3 |
| 20260503170359 | 63 | 241 | 10.0 | 20.0 | 0.00 | 0.00 | 0.00 | 39 | 1011.4 |